Wind_Speed
28 27 27 27 26 26 26 26 26 25 25 25 26 27 28 28 29 30 31 32 32 32 32 32 31 31 30 31 31 31 31 30 30 31 31 31 31 31 31 30 29 28 28
29 28 28 28 28 27 27 27 27 27 26 26 27 28 29 30 31 32 32 33 33 33 33 32 31 31 31 30 31 31 31 31 31 32 32 33 33 34 34 34 33 33 32
29 29 29 29 29 29 29 29 29 29 29 28 29 30 31 32 33 34 34 34 34 34 33 33 32 32 32 32 32 32 33 33 33 34 34 36 37 37 38 38 38 38 38
30 30 30 30 30 29 30 30 30 30 30 31 32 32 33 33 34 35 35 35 35 34 33 33 33 33 33 34 34 35 35 36 37 38 39 40 41 42 42 42 43 43 43
32 31 31 31 31 31 31 31 31 31 32 32 33 33 34 34 34 35 35 35 34 34 33 33 33 33 34 35 36 37 38 39 40 41 42 43 44 45 46 46 47 47 47
35 34 33 33 33 32 32 32 33 33 34 34 34 33 33 34 34 34 34 34 34 33 33 33 34 34 35 36 37 38 39 40 41 42 43 45 46 46 47 48 49 49 50
38 36 36 36 35 35 35 34 35 35 36 36 35 34 34 34 34 34 34 34 34 34 34 34 35 35 35 36 37 38 38 40 41 42 44 45 46 48 49 49 50 51 52
40 39 39 39 39 38 37 36 36 37 37 37 36 36 35 36 36 36 35 35 35 35 35 35 36 36 36 37 38 38 39 41 42 43 45 46 47 49 50 51 52 53 54
43 43 43 43 42 41 40 39 38 38 38 38 38 37 37 38 38 37 37 36 36 36 37 37 38 38 39 39 40 40 42 43 44 46 47 48 49 50 51 52 52 53 54
47 47 46 46 45 44 43 42 41 40 40 40 39 39 40 40 40 39 39 39 39 39 39 40 41 41 42 42 43 43 44 45 46 48 49 50 51 51 52 53 53 54 55
49 49 48 48 47 47 46 45 44 43 43 42 42 42 42 42 42 41 41 41 41 41 41 42 44 45 46 46 47 47 47 48 49 50 52 53 53 54 54 55 56 57 58
51 50 50 50 49 49 49 48 47 46 45 45 44 44 44 44 44 44 43 43 43 43 44 45 47 48 49 50 50 51 52 53 54 55 56 57 57 57 58 58 59 60 61
53 52 51 51 51 51 51 50 49 48 47 46 46 46 46 46 45 46 46 45 45 45 46 48 50 52 53 54 54 55 56 58 59 60 61 61 61 61 62 63 63 64 65
57 55 54 54 54 53 52 51 51 50 49 48 48 47 47 47 47 47 47 48 47 47 48 50 52 54 56 57 58 60 61 62 63 64 64 65 65 65 66 66 67 67 68
62 59 58 57 56 55 53 53 52 51 50 49 49 48 48 48 48 48 49 50 49 50 50 52 54 57 59 60 62 63 65 66 66 67 67 68 69 69 69 70 70 71 72
66 64 61 59 57 56 55 54 53 52 51 50 50 50 50 51 50 50 51 52 52 52 54 55 57 59 62 65 66 67 68 69 69 70 71 71 71 72 73 73 74 75 77
69 66 63 61 59 58 57 56 53 52 51 51 50 50 51 52 52 51 53 54 55 55 57 59 61 63 66 68 70 71 71 72 72 73 74 75 75 76 77 78 79 80 82
67 65 64 61 60 58 57 55 53 52 51 51 50 51 51 52 53 55 55 56 57 59 62 63 65 67 69 71 72 72 73 74 75 76 78 79 80 81 82 82 83 84 84
63 62 61 59 58 56 55 53 52 51 50 50 50 50 52 53 56 57 58 58 61 64 66 68 69 70 71 72 73 74 75 76 78 79 80 82 83 83 84 84 84 84 85
58 57 56 55 54 53 52 51 50 49 49 48 49 51 53 55 57 60 61 62 64 66 69 70 70 71 72 74 75 75 76 78 79 81 83 84 84 85 85 85 84 82 81
48 49 49 49 49 49 48 48 47 47 47 48 49 51 54 56 58 61 62 64 66 68 70 71 71 72 73 75 76 77 78 79 80 83 84 84 84 83 81 79 77 75 75
37 39 42 42 43 43 44 44 44 45 46 47 49 52 54 56 59 61 62 64 66 68 70 71 71 73 75 77 78 80 81 81 81 81 80 77 76 73 70 69 70 70 70
28 31 34 36 38 39 40 41 41 43 44 47 49 52 53 55 56 59 61 63 66 68 70 72 73 75 77 79 80 81 80 79 75 72 68 63 63 62 62 62 63 64 63
23 25 28 30 33 35 36 36 38 40 42 46 47 49 51 53 55 58 61 64 66 69 71 74 75 77 78 79 77 75 71 66 61 59 58 55 54 55 54 55 56 56 54
18 20 23 26 27 29 32 34 37 39 41 44 46 47 50 53 56 59 62 64 67 70 73 74 76 76 75 72 69 65 59 54 51 51 53 50 48 46 44 44 46 47 46
15 18 19 22 25 28 30 32 33 34 37 41 43 47 50 54 57 60 63 66 68 70 72 73 73 71 68 64 59 54 49 47 45 44 45 43 41 40 36 35 39 42 43
Wind_Direction
276 276 276 276 277 279 280 281 281 281 282 283 286 288 288 289 290 290 290 290 290 290 289 289 288 286 285 283 282 282 281 281 281 280 279 277 276 274 274 273 274 274 275
274 275 275 275 276 277 278 279 280 280 282 284 286 288 290 291 291 291 291 291 290 290 289 289 288 286 285 283 282 281 280 280 280 279 278 278 277 276 275 273 272 272 272
272 273 273 273 275 276 277 278 279 280 282 284 286 288 290 291 292 292 291 291 290 289 288 287 286 285 284 282 281 280 280 279 279 278 278 278 278 277 276 275 273 272 271
271 271 272 273 274 275 276 277 279 280 282 284 286 289 291 292 293 293 292 291 291 289 289 287 285 284 282 281 280 280 279 279 279 278 278 278 278 277 276 275 274 273 272
268 269 270 271 273 273 275 277 279 280 282 285 287 290 291 293 294 294 294 293 291 290 289 288 286 284 283 282 282 281 280 280 280 280 280 279 279 278 277 276 274 273 271
265 267 268 270 271 272 273 275 277 279 282 284 287 289 291 293 295 295 295 294 293 292 291 290 289 287 287 285 284 284 283 282 282 281 281 280 280 279 278 277 275 273 272
263 266 267 269 270 270 271 273 275 278 280 282 285 287 290 292 293 294 295 294 294 294 293 292 291 290 290 289 288 287 286 285 284 284 283 282 281 280 279 277 276 274 273
263 264 265 266 268 269 271 272 275 277 279 281 283 285 288 290 292 293 294 294 295 295 295 294 293 292 292 291 290 289 289 289 288 287 286 285 283 281 280 278 276 275 274
260 260 261 263 265 268 270 272 274 275 277 279 281 283 286 288 290 292 293 293 294 295 295 295 295 294 293 292 292 292 292 291 291 290 289 288 286 284 282 280 278 276 274
257 259 260 262 265 267 270 271 273 274 276 278 280 283 285 287 288 289 291 292 293 294 295 295 294 294 293 292 292 292 292 292 292 292 291 290 289 287 285 282 280 278 276
258 259 260 262 264 266 268 270 272 273 275 277 280 282 284 285 286 287 288 290 291 293 293 293 293 292 292 292 292 292 293 293 294 294 293 291 289 287 286 284 282 280 278
256 257 259 261 263 265 267 269 270 272 274 277 279 281 282 284 285 286 286 287 289 290 291 291 291 291 292 292 293 293 294 294 295 295 294 292 290 288 287 285 283 282 280
255 256 257 259 261 263 265 268 270 272 274 276 278 280 280 282 283 284 285 286 287 288 290 290 290 291 292 293 294 295 295 295 295 294 293 292 291 289 288 286 285 283 282
254 254 255 257 259 262 264 267 269 271 273 276 278 279 280 281 282 283 284 284 285 287 289 289 289 290 292 293 294 295 295 295 294 294 293 292 290 289 288 286 285 284 282
254 253 254 256 258 260 262 265 267 270 272 274 276 278 279 281 281 282 283 282 284 286 287 288 289 290 292 293 294 294 294 294 294 293 292 291 290 289 288 286 285 284 282
253 253 253 254 255 257 260 263 265 268 271 273 275 277 279 280 280 281 284 283 283 286 287 288 288 289 291 293 294 294 294 294 293 293 292 291 290 288 287 286 285 284 283
253 253 252 252 254 255 258 261 264 267 270 272 275 277 278 280 279 281 281 283 284 286 287 288 289 291 292 293 294 294 294 295 294 294 293 291 290 289 288 287 286 284 283
251 252 252 252 253 254 257 259 262 265 268 272 274 276 278 280 280 280 281 284 285 287 288 289 290 291 293 294 294 295 295 295 295 294 293 292 291 290 289 288 287 286 285
248 250 251 252 253 254 255 258 262 265 268 271 274 276 278 279 280 281 283 284 286 288 289 290 292 293 294 294 295 295 296 296 295 294 293 293 292 291 290 289 289 288 286
247 247 249 250 251 253 255 257 261 264 267 270 273 275 276 278 280 282 284 285 287 289 291 292 293 294 295 295 296 296 296 296 296 295 294 293 293 292 291 291 289 288 287
244 244 246 248 250 252 255 257 260 263 267 270 272 274 276 279 281 284 286 287 289 292 293 294 295 296 296 297 297 298 297 296 295 294 294 294 293 293 292 291 291 289 288
239 241 243 246 249 251 254 257 259 263 266 270 273 275 277 280 282 286 288 290 292 294 295 296 297 298 298 298 298 298 297 296 295 294 294 294 294 294 293 293 292 291 290
237 240 243 245 248 251 253 256 260 264 268 272 275 278 280 282 286 290 292 294 295 296 297 298 299 299 299 299 299 299 298 298 298 297 296 296 295 296 296 295 293 292 292
233 238 242 246 248 252 255 259 264 268 270 273 277 281 285 288 291 293 295 297 299 299 300 300 301 301 300 301 301 301 300 300 300 299 299 300 298 299 298 297 295 295 296
228 238 242 246 251 256 260 264 268 270 274 278 283 287 292 295 296 297 299 300 301 301 301 301 302 302 302 302 302 303 302 301 301 301 302 303 302 302 302 300 299 299 301
229 238 245 252 256 261 265 269 275 280 284 289 293 296 298 299 300 301 302 302 302 302 302 303 303 303 304 305 305 305 305 304 304 304 304 306 306 305 305 302 300 301 303
Height
5824 5824 5824 5824 5823 5823 5823 5823 5822 5822 5821 5821 5820 5820 5819 5818 5817 5816 5814 5813 5811 5810 5809 5808 5807 5806 5805 5804 5804 5803 5803 5802 5802 5801 5801 5801 5801 5801 5801 5800 5800 5800 5800
5818 5818 5818 5818 5818 5818 5817 5817 5817 5816 5816 5815 5815 5814 5813 5812 5811 5809 5808 5806 5805 5804 5802 5801 5800 5799 5798 5797 5797 5796 5796 5795 5794 5794 5794 5794 5793 5793 5793 5793 5793 5792 5792
5812 5812 5812 5812 5812 5812 5812 5811 5811 5810 5810 5810 5809 5808 5807 5805 5804 5803 5801 5799 5798 5797 5795 5794 5793 5792 5791 5790 5789 5789 5788 5787 5787 5786 5786 5786 5785 5785 5785 5784 5784 5784 5784
5806 5806 5805 5805 5806 5806 5805 5805 5805 5804 5804 5804 5803 5802 5800 5799 5797 5796 5794 5792 5791 5789 5788 5787 5786 5784 5783 5782 5781 5781 5780 5779 5778 5778 5777 5777 5776 5775 5775 5775 5774 5774 5774
5799 5799 5799 5799 5799 5799 5799 5798 5798 5798 5797 5797 5796 5795 5793 5792 5790 5788 5787 5785 5783 5782 5781 5779 5778 5777 5776 5774 5773 5772 5771 5770 5769 5768 5767 5766 5766 5765 5764 5764 5763 5763 5763
5792 5792 5793 5792 5792 5792 5792 5792 5791 5791 5790 5790 5789 5788 5786 5785 5783 5781 5779 5778 5776 5774 5773 5772 5770 5769 5767 5766 5764 5763 5762 5761 5759 5758 5757 5755 5754 5753 5752 5751 5751 5750 5750
5784 5785 5785 5785 5785 5785 5785 5785 5784 5784 5783 5782 5782 5781 5779 5778 5776 5774 5772 5770 5769 5767 5765 5763 5762 5760 5759 5757 5755 5754 5752 5750 5749 5747 5745 5744 5742 5741 5740 5739 5738 5737 5737
5777 5776 5776 5776 5777 5777 5777 5777 5777 5776 5776 5775 5774 5773 5772 5771 5768 5766 5765 5763 5761 5759 5757 5755 5753 5751 5749 5748 5746 5744 5742 5740 5738 5736 5734 5732 5730 5729 5727 5725 5724 5723 5722
5767 5766 5767 5767 5768 5768 5768 5769 5769 5769 5768 5767 5766 5766 5764 5763 5761 5759 5756 5754 5753 5750 5748 5746 5744 5742 5740 5738 5736 5734 5731 5729 5726 5724 5721 5719 5717 5715 5714 5712 5710 5709 5708
5756 5756 5757 5758 5758 5759 5760 5760 5760 5760 5759 5758 5758 5757 5756 5754 5752 5750 5748 5745 5743 5741 5739 5737 5734 5732 5730 5728 5725 5723 5720 5717 5715 5712 5709 5706 5704 5701 5699 5697 5696 5695 5693
5745 5746 5747 5748 5749 5749 5750 5750 5750 5750 5750 5750 5749 5747 5746 5744 5742 5741 5739 5736 5734 5731 5729 5726 5724 5721 5719 5716 5714 5711 5708 5705 5702 5698 5695 5692 5689 5687 5684 5682 5680 5678 5677
5734 5735 5737 5738 5739 5739 5740 5740 5740 5740 5740 5740 5739 5738 5736 5734 5733 5731 5729 5726 5724 5721 5718 5715 5712 5709 5706 5703 5701 5698 5695 5691 5687 5684 5680 5677 5673 5671 5668 5665 5663 5661 5659
5721 5723 5725 5726 5727 5728 5729 5729 5729 5730 5730 5729 5728 5727 5726 5724 5722 5720 5718 5715 5712 5709 5706 5702 5699 5696 5693 5689 5686 5683 5680 5676 5672 5668 5664 5660 5656 5653 5650 5647 5644 5642 5639
5708 5710 5712 5714 5715 5717 5717 5718 5719 5719 5719 5718 5717 5716 5714 5713 5711 5708 5706 5703 5700 5697 5694 5689 5685 5682 5679 5675 5672 5668 5664 5660 5655 5650 5646 5642 5638 5635 5631 5628 5625 5622 5619
5692 5695 5698 5701 5703 5705 5706 5707 5707 5707 5707 5707 5706 5705 5703 5701 5699 5697 5694 5691 5689 5686 5682 5678 5673 5669 5664 5661 5656 5652 5648 5643 5638 5632 5627 5623 5619 5615 5611 5607 5604 5600 5597
5676 5680 5684 5687 5690 5692 5694 5695 5696 5696 5696 5695 5694 5693 5691 5689 5687 5685 5682 5678 5675 5672 5669 5665 5660 5655 5650 5645 5640 5635 5630 5625 5619 5613 5608 5603 5598 5594 5589 5585 5581 5577 5573
5660 5665 5669 5673 5676 5679 5681 5683 5684 5685 5684 5684 5683 5681 5680 5677 5675 5672 5669 5666 5662 5659 5655 5651 5646 5640 5634 5628 5622 5616 5611 5605 5599 5592 5586 5581 5576 5571 5566 5561 5556 5552 5547
5644 5649 5655 5659 5663 5666 5669 5671 5672 5673 5673 5673 5672 5670 5668 5665 5662 5659 5655 5652 5648 5644 5640 5636 5630 5623 5616 5610 5604 5598 5592 5585 5578 5571 5563 5557 5551 5545 5539 5533 5528 5524 5518
5629 5635 5641 5646 5650 5654 5657 5659 5661 5662 5662 5661 5660 5659 5656 5653 5650 5646 5642 5638 5633 5629 5623 5619 5613 5606 5599 5591 5586 5579 5572 5565 5556 5548 5540 5532 5525 5517 5510 5504 5499 5494 5488
5615 5622 5629 5634 5638 5642 5646 5648 5650 5651 5651 5650 5649 5647 5644 5641 5637 5632 5628 5623 5618 5612 5606 5601 5595 5588 5580 5572 5565 5560 5554 5544 5535 5524 5514 5506 5498 5490 5482 5476 5470 5464 5458
5605 5612 5618 5623 5628 5632 5635 5638 5639 5640 5640 5639 5637 5635 5632 5628 5624 5619 5614 5608 5603 5596 5589 5583 5576 5569 5561 5553 5545 5538 5531 5523 5513 5500 5491 5481 5471 5464 5455 5448 5441 5435 5430
5596 5603 5609 5614 5619 5623 5626 5628 5629 5630 5629 5628 5626 5623 5620 5615 5610 5605 5599 5593 5587 5579 5572 5565 5558 5550 5541 5532 5524 5515 5506 5499 5491 5478 5469 5460 5446 5441 5432 5425 5417 5410 5404
5591 5597 5602 5607 5611 5615 5617 5619 5620 5620 5619 5617 5615 5611 5607 5602 5597 5591 5585 5578 5570 5561 5554 5547 5539 5529 5521 5511 5503 5493 5482 5473 5464 5452 5445 5442 5430 5423 5414 5406 5397 5390 5384
5588 5593 5597 5601 5605 5608 5610 5611 5611 5610 5608 5606 5603 5599 5594 5589 5583 5578 5571 5563 5553 5544 5536 5527 5518 5509 5498 5488 5479 5470 5461 5453 5444 5433 5424 5423 5416 5408 5400 5389 5379 5372 5367
5586 5590 5594 5597 5600 5601 5603 5603 5602 5601 5599 5596 5591 5587 5582 5576 5570 5564 5556 5547 5538 5527 5516 5506 5496 5486 5476 5466 5457 5450 5442 5435 5430 5421 5410 5406 5401 5394 5387 5377 5367 5359 5353
5585 5588 5591 5593 5594 5595 5595 5595 5593 5591 5588 5585 5580 5575 5570 5563 5555 5547 5538 5529 5520 5509 5498 5486 5475 5465 5455 5446 5439 5432 5427 5421 5415 5409 5399 5394 5387 5380 5377 5369 5358 5349 5342